Regional Weather Roundup
Issued by NWS Charleston, SC

Current Version | Previous Version | Text Only | Print | Product List | Glossary Off
Versions: 1 2 3 4 5 6 7 8 9 10 11 12 13 14 15 16 17 18 19 20 21 22 23 24 25 26 27 28 29 30 31 32 33 34 35 36 37 38 39 40 41 42 43 44 45 46 47 48 49 50

000
ASUS42 KCHS 301513
RWRCHS

REGIONAL WEATHER ROUNDUP
NATIONAL WEATHER SERVICE CHARLESTON SC
1100 AM EDT SAT JUL 30 2016

NOTE: "FAIR" INDICATES FEW OR NO CLOUDS BELOW 12,000 FEET WITH NO
SIGNIFICANT WEATHER AND/OR OBSTRUCTIONS TO VISIBILITY.

NOT ALL STATIONS ARE QUALITY CONTROLLED. USE DATA WITH CAUTION...
ESPECIALLY DEWPOINT OBSERVATIONS.

SCZ027-030-031-034>040-042>050-301600-
...SOUTHEAST SOUTH CAROLINA...

CITY           SKY/WX    TMP DP  RH WIND       PRES   REMARKS
N CHARLESTON   MOSUNNY   93  73  52 VRB5      30.02S HX 102
WATERFRONT PRK   N/A     91  73  55 NW5       30.00R HX  99
MOUNT PLEASANT FAIR      93  75  55 CALM      30.02S HX 104
JOHNS ISLAND   FAIR      95  75  52 CALM      30.02S HX 107
PINOPOLIS        N/A     90  77  66 MISG      29.94S HX 102
MONCKS CORNER  FAIR      90  66  45 CALM      30.02S HX  92
SUMMERVILLE    FAIR      91  73  55 SW3       30.03S HX 100
BEAUFORT MCAS  SUNNY     93  72  50 CALM      30.03S HX 101
BEAUFORT ARPT  FAIR      90  72  55 CALM      30.03S HX  96
HILTON HEAD IS SUNNY     97  72  44 W6        30.04S HX 105
WALTERBORO     SUNNY     91  70  49 SW3       30.04S HX  97
ALLENDALE      FAIR      90  72  55 CALM      30.03S HX  96

...SOUTHERN MIDLANDS AND PEE DEE...

CITY           SKY/WX    TMP DP  RH WIND       PRES   REMARKS
GEORGETOWN     FAIR      91  73  55 W5        30.02S HX 100
KINGSTREE      FAIR      91  70  49 W9        30.01S HX  97
ORANGEBURG     SUNNY     91  71  51 W5        30.03S HX  97
BARNWELL       NOT AVBL
AIKEN          FAIR      88  70  55 SW7       30.08R HX  92
MANNING        FAIR      90  70  51 W5        30.02S HX  95
COLUMBIA       MOSUNNY   94  70  45 VRB6      30.01S HX 100
SUMTER         SUNNY     89  73  58 SW8       30.00S HAZE    HX  97
FLORENCE       SUNNY     90  73  57 W8        30.00S HX  98
MYRTLE BEACH   SUNNY     93  72  49 W8        30.02R HX 100
N MYRTLE BEACH SUNNY     93  73  52 NW7       30.00R HX 102

$$

GAZ063-065-086>088-099>101-113>116-118-119-134>141-150-301600-
...SOUTHEAST GEORGIA...

CITY           SKY/WX    TMP DP  RH WIND       PRES   REMARKS
SAVANNAH ARPT  MOSUNNY   92  72  51 W7        30.04S HX  99
HUNTER AAF     SUNNY     92  76  60 NW5       30.02S HX 104
FORT STEWART   NOT AVBL
STATESBORO     SUNNY     90  76  65 SW7       30.05S HX 101
SYLVANIA       NOT AVBL
CLAXTON        FAIR      92  75  59 W7        30.04F HX 103

...CSRA...CENTRAL AND FAR SOUTHEAST GEORGIA...

CITY           SKY/WX    TMP DP  RH WIND       PRES   REMARKS
THOMSON        NOT AVBL
AUGUSTA-BUSH   SUNNY     90  71  53 W6        30.03R HX  96
AUGUSTA-DANIEL SUNNY     90  71  53 VRB5      30.05R HX  96
SWAINSBORO     FAIR      90  72  55 NW9       30.06S HX  96
VIDALIA        SUNNY     90  70  51 W5        30.06S HX  95
EASTMAN        FAIR      90  62  38 W7        30.09S HX  90
HAZLEHURST     FAIR      91  75  60 CALM      30.05S HX 102
ALMA           SUNNY     90  72  55 NW5       30.06S HX  97
WAYCROSS       SUNNY     93  77  59 NW5       30.06F HX 106
JESUP          FAIR      90  77  66 CALM      30.06S HX 102
BAXLEY         FAIR      90  77  66 NW7       30.06S HX 102
BRUNSWICK      SUNNY     90  77  66 CALM      30.07S HX 102
SAINT SIMONS   SUNNY     90  73  57 VRB5      30.06R HX  98

$$

SCZ027-028-034-036>038-045-046-048>050-GAZ119-141-301600-
...LAKE AND SUPPLEMENTAL COASTAL OBSERVATIONS...

STATION/POSITION TIME  TEMP    WIND        PRES    WAVE   SWELL
                       AIR SEA DIR/SP/G            HT/PER HT/PER/DIR
                 (UTC) (F)     (DEG/KT/KT) (MB)    (FT/S) (FT/S/D)
WINYAH BAY       NOT AVBL
LAKE MURRAY      1400   85     210/  5/  7 1015.9R
ACE BASIN NERRS  NOT AVBL
FORT PULASKI     1400   85 87  290/  6/  7 1017.5R
SAPELO ISLAND    1400   86     290/  5     1018.0R

$$

ANZ835-935-AMZ111-154-330-350-352-354-370-450-454-472-301600-
...C-MAN AND BUOY OBSERVATIONS...

STATION/POSITION TIME  TEMP    WIND        PRES    WAVE   SWELL
                       AIR SEA DIR/SP/G            HT/PER HT/PER/DIR
                 (UTC) (F)     (DEG/KT/KT) (MB)    (FT/S) (FT/S/D)
BUOY 41004       1450   85 85  260/ 10/ 12 1016.3R   4/ 6   3/200/ 6
BUOY 41008       1450   85 87  250/  6/  6 1017.9R   2/ 8   2/100/ 8
FOLLY BEACH CMAN 1500   90     190/  6/  8 1016.9R
CAPERS NEARSHORE 1408   86 85  290/  6/  8 1016.3R
FRIPP NEARSHORE  1408   85 87  290/  8/ 10 1016.6R


STATION/POSITION TIME  TEMP    WIND        PRES    WAVE   SWELL
                       AIR SEA DIR/SP/G            HT/PER HT/PER/DIR
                 (UTC) (F)     (DEG/KT/KT) (MB)    (FT/S) (FT/S/D)
5E ST. MARYS GA  1401      85                N/A     1/ 9
FRYING PAN BUOY  1400   85 85  220/ 12/ 16 1015.9R
BUOY 41025       1450   85 86  160/  6/  8 1016.0R   2/ 6   2/210/ 6
CAPE LOOKOUT NC  1400          160/  5     1015.2R
BUOY 41002       1450   84 85  210/ 10/ 12 1018.3R   3/ 6   2/230/ 6
BUOY 41010       1420   85 87  220/  4/  6 1018.8R
ST AUGUSTINE FL  1500   85 85   80/  5/  5 1019.6R


$$




USA.gov is the U.S. government's official web portal to all federal, state and local government web resources and services.